UATELBWN

Guest
Details From UATE - Aktau
To LBWN - Varna
Flight Number -
Tags Generated
Created
Modified
Stats Distance 1,011 nm / 1,872 km
Max Altitude 0 ft / 0 m
Waypoints 6
Social Downloads 0
Likes 0
Share VATSIM

Download

Looking for another format? Having issues loading an existing format? Contact us
Advertisement - Login to hide

Notes

Generated

Route

UATE NASTA LA DOLOT R1830 LBWN

ID Type Via Altitude Latitude Longitude Leg Dist Tot Dist Heading (true) Name
O UATE APT - 0 ft / 0 m 43.86648˚ 51.07808˚ - 0 nm - -
NASTA FIX - 0 ft / 0 m 44.00000˚ 45.21667˚ 253 nm 253 nm 274° / 270° -
LA NDB - 0 ft / 0 m 43.91667˚ 39.33333˚ 254 nm 507 nm 271° / 267° -
DOLOT FIX - 0 ft / 0 m 43.70137˚ 33.46846˚ 254 nm 762 nm 269° / 265° -
R1830 FIX - 0 ft / 0 m 43.23344˚ 27.80983˚ 248 nm 1010 nm 265° / 262° -
O LBWN APT - 0 ft / 0 m 43.23344˚ 27.80983˚ 0 nm 1010 nm 0° / 180° -

Altitude Profile

Advertisement - Login to hide

Weather


0- 5 10 15 20 25 30 35+ Temperature / ° C

Clouds and Precipitation
Forecast for 2018-05-22 12:00 UTC. Updated an hour ago

Ground ~20,000 ft ~40,000 ft Winds

UATE

Details ICAO UATE (SCO)
Name AKTAU
Region Kazakhstan and Kyrgyzstan
Timezone Asia/Aqtau (UTC+5.0)
Stats Elevation 73 ft / 22 m (AMSL)
Location 43.860243° 51.091535°
Runways 2
Magnetic Variation 7.497° E

METAR

UATE 221030Z 28006MPS 250V330 CAVOK 32/02 Q1019 R30/0///70 NOSIG RMK QFE763/1017

Decode

TAF

TAF UATE 220506Z 2206/2306 16005MPS CAVOK TX33/2209Z TN16/2301Z BECMG 2207/2209 27008MPS BECMG 2211/2213 33006MPS

Decode

Departure Runways

ID Width Length Bearing (true) Bearing (mag) Surface Threshold Offset Overrun Length
12 148 ft / 45 m 8,664 ft / 2,641 m 122.79° 115.29° Asphalt 0 ft / 0 m 820 ft / 250 m
12L 151 ft / 46 m 9,729 ft / 2,966 m 123.04° 115.54° Dirt 0 ft / 0 m 0 ft / 0 m
30 148 ft / 45 m 8,664 ft / 2,641 m 302.81° 295.31° Asphalt 0 ft / 0 m 171 ft / 52 m
30R 151 ft / 46 m 9,729 ft / 2,966 m 303.07° 295.57° Dirt 0 ft / 0 m 0 ft / 0 m

LBWN

Details ICAO LBWN (VAR)
Name Varna
Region Bulgaria
Timezone Europe/Sofia (UTC+3.0)
Stats Elevation 230 ft / 70 m (AMSL)
Location 43.232042° 27.825236°
Runways 1
Magnetic Variation 5.692° E

METAR

LBWN 221030Z 09014KT 9999 FEW039 23/13 Q1019 NOSIG

Decode

TAF

TAF LBWN 220500Z 2206/2306 03008KT 9999 SCT025 BECMG 2207/2209 10014KT BECMG 2218/2220 04010KT BKN015

Decode

Destination Runways

ID Width Length Bearing (true) Bearing (mag) Surface Threshold Offset Overrun Length
09 180 ft / 55 m 8,254 ft / 2,516 m 97.11° 91.42° Concrete 350 ft / 107 m 0 ft / 0 m
27 180 ft / 55 m 8,254 ft / 2,516 m 277.13° 271.44° Concrete 350 ft / 107 m 0 ft / 0 m

Approach Navaids

Runway Type Ident Frequency Range Bearing (true) Bearing (mag) Slope Elevation
09 Localiser IWN 109.90 MHz 18 nm / 33 km 97.27° 91.57° - 230 ft / 70 m (AMSL)
09 Glidescope IWN 109.90 MHz 10 nm / 19 km 97.12° 91.43° 3.00° 230 ft / 70 m (AMSL)